Flag for U.S.A. Weather past 2 weeks in Topeka, Kansas, U.S.A.

Now
92 °F

Sunny.


Feels Like: 95 °F
Forecast: 75 / 99 °F
Wind: 9 mph from Southwest

Location: Philip Billard Municipal Airport

Current Time: Aug 23, 2014 at 12:53:17 PM

Latest Report: Aug 23, 2014 at 11:53 AM


Visibility: 10 mi

Pressure: 29.85 "Hg

Humidity: 43%

Dew point: 66 °F

Location of TopekaLocation

Historic Weather in Topeka — Graph

°F

Topeka temperature yesterday

Maximum temperature yesterday: 93 °F (at 1:53 PM)
Minimum temperature yesterday: 80 °F (at 4:53 AM)
Average temperature yesterday: 86 °F

Past Weeks' High & Low Weather Summary

 TemperatureHumidityPressure
High99 °F (Aug 21, 3:53 PM)100% (Aug 11, 3:53 AM)30.16 "Hg (Aug 11, 3:53 AM)
Low56 °F (Aug 13, 6:53 AM)31% (Aug 13, 4:53 PM)29.66 "Hg (Aug 19, 4:53 AM)
Average78 °F71%29.92 "Hg
* Reported Aug 8 11:53 AM — Aug 23 11:53 AM, Topeka, Weather by CustomWeather, © 2014

Note: Actual official high and low records may vary slightly from our data, if they occured in-between our weather recording intervals... More about our weather records

Advertising

Topeka weather history for previous 24 hours

 ConditionsComfort  
Time TempWeatherWind HumidityBarometerVisibility
11:53 AM
Aug 23
92 °FSunny.9 mph43%29.85 "Hg10 mi
10:53 AM87 °FSunny.9 mph51%29.85 "Hg10 mi
9:53 AM84 °FSunny.8 mph59%29.87 "Hg10 mi
8:53 AM81 °FSunny.7 mph65%29.88 "Hg10 mi
7:53 AM79 °FSunny.6 mph67%29.88 "Hg10 mi
6:53 AM78 °FPassing clouds.5 mph69%29.85 "Hg10 mi
5:53 AM80 °FClear.7 mph67%29.83 "Hg10 mi
4:53 AM81 °FClear.9 mph67%29.83 "Hg10 mi
3:53 AM81 °FClear.6 mph69%29.84 "Hg10 mi
2:53 AM81 °FClear.5 mph74%29.85 "Hg10 mi
1:53 AM78 °FClear.No wind84%29.85 "Hg10 mi
12:53 AM79 °FClear.5 mph84%29.86 "Hg10 mi
11:53 PM
Aug 22
80 °FClear.No wind81%29.88 "Hg10 mi
10:53 PM81 °FClear.3 mph79%29.87 "Hg10 mi
9:53 PM83 °FClear.3 mph70%29.87 "Hg10 mi
8:53 PM84 °FSunny.No wind65%29.86 "Hg10 mi
7:53 PM86 °FSunny.5 mph59%29.85 "Hg10 mi
6:53 PM89 °FSunny.8 mph55%29.84 "Hg10 mi
5:53 PM89 °FLight rain. Partly sunny.8 mph59%29.86 "Hg10 mi
4:53 PM93 °FPassing clouds.No wind47%29.86 "Hg10 mi
3:53 PM91 °FSunny.5 mph47%29.87 "Hg10 mi
2:53 PM92 °FSunny.14 mph51%29.87 "Hg10 mi
1:53 PM93 °FSunny.10 mph50%29.88 "Hg10 mi
12:53 PM92 °FSunny.9 mph52%29.87 "Hg10 mi
Weather by CustomWeather, © 2014

See weather overviewHow to use our weather pages